CHINASAT 9C

Last updated on Thu Sep 10 2026 00:03:02 GMT+0000 (Coordinated Universal Time)

1 64470U 25132A 26252.60386171 -.00000268 00000+0 00000+0 0 9998 2 64470 0.0163 204.0697 0003207 324.5970 129.5691 1.00269272 4997
UTC large
Height (km)
Speed (km/s)
/
Latitude / Longitude
Inclination (degrees)
Orbital Period (minutes)
Azimuth
Elevation
Range (km)
Doppler Factor

Next 0 passes for location: London (51.5072 / 0.1276)

No passes found over London.
CHINASAT 9C